This is the latest recevied weather packets stored in our database for station/object KC0SIQ-13. If no packets are shown the sender has not sent any weather packets the latest 10 day(s).
| Time | Temp. | Humidity | Pressure | Rain* | Wind** | Luminosity | Snow |
|---|---|---|---|---|---|---|---|
| 1777975137 | 2.22° C | 97% | 1011.8 hPa | 3.56 mm | - | 0 W/m² | - |
| 1777974835 | 2.22° C | 97% | 1011.6 hPa | 3.05 mm | - | 0 W/m² | - |
| 1777974531 | 2.22° C | 96% | 1011.8 hPa | 1.27 mm | - | 0 W/m² | - |
| 1777974228 | 2.78° C | 96% | 1011.9 hPa | 0 mm | - | 0 W/m² | - |
| 1777973923 | 2.78° C | 96% | 1011.9 hPa | 1.78 mm | - | 0 W/m² | - |
| 1777973621 | 2.78° C | 96% | 1011.7 hPa | 1.78 mm | - | 0 W/m² | - |
| 1777973318 | 3.33° C | 96% | 1011.7 hPa | 0 mm | - | 0 W/m² | - |
| 1777973016 | 3.33° C | 96% | 1011.7 hPa | 1.27 mm | - | 0 W/m² | - |
| 1777972713 | 3.33° C | 96% | 1011.8 hPa | 1.27 mm | - | 0 W/m² | - |
| 1777972411 | 3.33° C | 96% | 1011.4 hPa | 0 mm | - | 0 W/m² | - |
| 1777972109 | 3.33° C | 96% | 1011.8 hPa | 1.78 mm | - | 0 W/m² | - |
| 1777971807 | 3.33° C | 96% | 1011.9 hPa | 1.78 mm | - | 0 W/m² | - |
| 1777971504 | 3.89° C | 96% | 1011.6 hPa | 1.27 mm | - | 0 W/m² | - |
| 1777971202 | 3.89° C | 96% | 1011.3 hPa | 3.05 mm | - | 0 W/m² | - |
| 1777970899 | 4.44° C | 96% | 1011.2 hPa | 3.05 mm | - | 0 W/m² | - |
| 1777970598 | 4.44° C | 96% | 1011.1 hPa | 3.05 mm | - | 0 W/m² | - |
| 1777970294 | 4.44° C | 96% | 1011.3 hPa | 4.32 mm | - | 0 W/m² | - |
| 1777969992 | 4.44° C | 96% | 1011.2 hPa | 3.05 mm | - | 0 W/m² | - |
| 1777969688 | 5° C | 95% | 1011 hPa | 1.78 mm | - | 0 W/m² | - |
| 1777969385 | 5° C | 95% | 1011 hPa | 1.27 mm | - | 0 W/m² | - |
| 1777969081 | 5° C | 95% | 1010.9 hPa | 1.27 mm | - | 0 W/m² | - |
| 1777968778 | 5° C | 95% | 1011.1 hPa | 1.78 mm | - | 0 W/m² | - |
| 1777968474 | 5.56° C | 95% | 1011.1 hPa | 1.78 mm | - | 0 W/m² | - |
| 1777968170 | 5.56° C | 95% | 1011 hPa | 1.78 mm | - | 0 W/m² | - |
| 1777967866 | 5.56° C | 95% | 1010.7 hPa | 1.78 mm | - | 0 W/m² | - |
* Rain latest hour (hover to see other rain measurements)
** Current wind speed in m/s (hover to see current wind gust speed)